GFSSE_850_spd_021.txt.gz
Wind_Speed
22 25 27 30 31 29 31 29 25 24 21 23 22 21 19 17 14 11 10 9 8 9 8 7 8 8 8 8 8 7 7 5 6 6 7 6 4 4 4 5 6 7 9
23 23 27 28 29 28 27 25 22 21 21 21 19 19 18 16 13 11 9 9 7 8 7 7 7 8 9 9 8 7 6 6 5 5 7 6 4 3 4 6 9 10 11
24 24 22 24 24 23 21 21 21 21 21 20 20 19 17 15 12 9 8 6 6 6 7 7 7 7 7 8 10 8 6 6 4 5 6 8 5 5 3 7 9 11 10
21 21 20 19 19 20 20 20 20 21 20 20 20 19 14 11 9 7 6 5 6 6 7 6 7 7 8 8 8 7 6 5 4 2 6 7 6 4 4 7 8 9 9
20 20 19 20 20 20 21 21 20 20 20 19 17 15 11 10 9 6 5 4 5 5 5 6 7 7 8 8 8 8 7 6 5 3 2 6 6 4 6 7 6 9 10
21 20 20 20 20 20 19 20 22 21 18 16 15 13 12 10 7 5 4 4 3 4 4 5 6 7 7 7 7 7 7 8 8 5 1 5 6 5 5 6 6 9 10
21 20 19 19 19 19 19 21 21 17 14 14 13 11 9 8 5 4 4 2 2 3 5 7 8 7 7 6 6 7 7 5 6 6 1 0 5 4 4 5 6 7 8
20 19 19 18 18 19 20 20 18 14 13 13 10 9 9 7 5 3 2 1 2 4 6 6 7 7 7 6 7 7 7 6 5 6 3 1 2 3 3 4 6 5 9
19 19 18 17 17 19 18 16 14 13 13 12 11 10 8 6 4 1 1 1 3 4 5 5 6 6 7 7 7 7 7 7 7 6 8 4 2 2 2 1 4 6 7
18 18 18 19 20 19 17 15 14 13 12 12 11 9 7 5 4 2 1 1 4 4 4 5 5 5 6 7 7 8 7 6 5 6 6 6 3 2 3 3 3 6 6
18 17 18 19 20 19 18 16 13 12 11 10 10 8 6 5 3 2 1 3 2 5 5 4 4 4 3 6 6 5 5 6 5 4 6 5 5 1 2 1 3 5 6
20 19 19 20 20 19 17 15 13 13 12 10 9 8 7 6 5 3 2 2 3 5 6 5 5 4 4 4 5 6 5 5 3 3 4 5 3 3 3 2 2 5 7
20 20 20 19 19 19 19 16 14 13 11 9 9 8 6 6 4 3 3 3 3 5 4 7 6 5 4 5 7 10 8 7 6 6 3 4 5 4 4 5 4 4 6
22 20 20 20 20 19 18 16 15 13 12 11 10 9 6 6 4 3 2 4 4 5 6 6 5 6 8 10 11 8 7 7 6 7 6 6 6 5 5 5 8 4 5
23 21 20 20 19 18 17 16 16 15 14 12 12 9 8 6 6 5 6 7 7 7 8 7 7 10 11 12 13 12 11 10 8 7 6 6 7 6 6 7 7 9 7
23 22 20 19 18 18 17 16 15 14 14 13 11 11 6 7 7 10 10 10 9 8 9 10 11 12 13 14 13 13 11 10 11 10 11 10 9 10 8 7 8 9 12
21 21 21 18 18 18 16 15 15 13 14 14 12 12 11 12 12 11 12 12 9 11 11 13 14 14 12 12 12 12 11 12 13 13 15 16 16 14 13 12 9 10 11
21 21 19 18 17 18 16 15 14 13 14 15 12 12 13 14 14 13 14 12 11 11 12 15 13 13 14 13 12 12 13 15 16 16 16 17 18 17 17 15 14 12 13
22 21 21 19 16 12 14 15 14 15 16 16 16 14 13 14 13 15 14 11 12 13 12 10 14 16 17 16 13 13 14 14 14 12 11 10 12 13 12 15 13 13 13
25 24 24 22 20 15 13 16 16 16 16 16 17 18 18 16 14 12 12 11 10 9 9 13 17 20 14 13 11 10 10 9 5 5 4 4 4 5 8 9 12 12 13
29 28 27 26 23 22 19 19 20 19 18 15 16 16 17 17 16 14 13 11 8 9 11 16 19 12 8 10 12 8 8 4 2 1 1 2 3 4 5 5 7 12 13
32 31 29 29 28 26 24 21 21 19 18 16 16 16 15 14 15 14 11 9 8 10 14 17 13 11 10 8 7 9 3 2 1 3 2 3 4 5 5 6 6 6 8
34 34 32 28 29 28 25 25 24 22 21 18 17 15 14 13 11 10 10 10 10 13 15 9 12 10 7 8 6 3 2 1 5 3 2 4 4 3 4 5 6 7 8
35 33 33 29 27 28 29 28 27 23 20 17 14 12 13 12 12 13 11 10 13 14 8 7 7 6 6 5 5 3 4 3 2 2 2 3 5 5 5 3 3 4 6
31 34 34 32 29 27 29 29 26 25 22 18 14 13 14 15 16 16 15 14 13 9 8 7 5 3 4 4 3 4 5 4 3 2 4 6 4 5 5 5 7 8 8
36 35 35 34 32 29 29 30 28 26 24 21 17 15 15 15 16 17 16 14 12 10 8 6 4 3 2 2 3 3 2 2 3 3 6 8 8 5 7 5 8 11 11

GFSSE_850_spd_024.txt.gz
Wind_Speed
24 23 23 29 32 32 30 28 27 26 26 26 24 21 19 17 12 11 11 10 11 10 9 9 10 9 11 10 9 9 9 8 9 8 8 7 6 5 5 5 11 5 8
22 23 29 31 30 29 28 26 24 23 23 23 21 18 15 13 11 10 9 10 10 9 10 10 10 10 11 10 10 8 8 6 7 7 9 12 5 5 6 9 12 7 11
20 24 25 27 26 24 23 22 20 21 20 20 19 17 14 12 10 9 8 9 10 9 8 10 9 9 9 9 9 8 6 6 5 6 12 8 2 6 6 9 10 11 10
19 18 21 23 22 21 21 20 21 20 19 18 17 16 13 10 8 7 7 7 7 7 8 8 9 9 9 8 9 8 7 6 3 6 9 6 4 6 6 8 9 9 10
14 14 17 17 18 20 20 19 18 18 19 18 17 13 10 8 7 6 5 5 6 6 7 7 8 8 8 8 8 7 7 6 5 3 7 5 7 5 6 7 8 9 13
14 13 17 17 18 18 18 17 19 19 18 17 14 11 10 9 6 4 4 4 5 5 7 8 9 8 7 7 8 7 6 5 7 3 5 6 5 5 6 6 8 8 11
16 15 16 17 17 18 19 21 20 17 16 14 12 11 9 6 4 4 3 3 3 5 6 7 8 8 7 7 6 6 6 7 5 6 3 5 2 4 7 7 7 8 8
16 16 16 17 17 18 19 20 16 13 13 13 10 8 7 5 4 2 1 2 3 5 6 6 7 7 7 7 7 7 8 7 5 5 3 2 1 4 4 6 7 8 8
16 18 16 15 16 17 17 16 13 12 12 10 8 8 7 5 3 0 1 2 4 5 5 6 5 7 8 7 7 8 7 7 5 4 5 2 3 4 4 4 6 6 8
16 15 16 16 15 15 15 15 12 11 10 9 9 8 6 4 1 3 4 3 4 5 5 5 5 5 6 6 6 6 7 10 3 3 4 1 2 3 4 2 4 6 6
16 16 14 14 15 14 12 12 12 11 11 10 9 7 5 2 3 3 4 3 2 4 5 4 4 5 4 8 8 8 9 4 2 1 2 3 3 1 3 3 3 6 6
17 15 17 16 15 15 12 11 10 9 8 7 7 8 5 6 5 3 4 2 4 5 4 7 6 7 8 3 6 10 5 3 3 3 4 4 1 1 2 3 3 5 6
18 17 17 17 16 15 13 11 9 9 9 8 9 8 6 5 4 3 4 4 3 8 3 5 5 2 1 2 5 5 4 4 3 4 7 6 4 3 2 4 3 5 6
19 18 17 17 17 16 13 12 11 11 10 9 8 9 7 5 5 4 4 4 4 3 5 5 4 4 4 7 6 6 5 3 4 4 7 8 6 4 4 5 7 5 7
19 18 18 18 17 16 17 13 13 12 11 10 9 9 8 7 7 6 6 5 6 5 6 6 5 7 7 8 8 8 6 8 6 4 6 11 7 6 6 6 7 9 8
19 19 18 18 18 17 16 16 14 12 12 12 11 11 11 8 9 10 8 7 8 7 8 7 7 9 8 8 8 5 7 6 7 7 7 10 12 10 10 8 8 9 11
20 19 19 19 19 18 18 16 15 13 12 12 11 12 13 13 13 11 8 10 8 10 9 8 8 8 9 9 9 9 7 8 8 9 10 9 12 14 13 11 11 9 10
20 21 20 18 19 19 18 17 15 13 12 12 15 13 15 13 13 13 11 10 9 11 9 8 7 7 9 9 10 9 9 10 10 11 9 9 9 10 12 14 13 13 11
20 20 20 20 19 19 19 16 15 15 15 12 15 14 12 12 11 11 12 10 12 10 8 6 6 9 11 10 9 9 9 7 6 4 4 4 4 6 7 11 13 13 12
19 19 19 19 19 18 16 17 15 15 14 13 13 13 14 13 10 11 9 9 11 8 5 6 10 11 9 7 6 7 6 4 2 0 1 1 1 0 2 6 7 8 13
21 20 21 21 21 19 17 15 15 14 14 12 12 13 13 13 14 13 10 10 9 5 6 8 9 10 6 7 6 5 4 1 1 2 1 1 2 2 2 1 1 5 9
24 24 23 25 24 23 18 16 14 12 13 13 11 13 12 11 11 10 11 9 8 6 7 6 7 6 6 5 4 4 2 3 3 2 1 1 1 2 3 3 1 1 3
27 26 26 27 27 27 23 18 16 15 14 12 12 11 11 10 10 9 8 7 9 5 7 8 6 6 4 5 4 1 3 2 3 3 3 3 3 2 2 4 2 4 3
30 27 27 29 30 29 29 24 21 16 13 11 9 9 8 9 8 8 9 9 9 6 9 6 6 3 3 4 4 2 1 3 4 2 2 3 3 3 3 3 4 4 4
30 29 27 30 31 30 29 29 24 21 16 13 11 11 8 10 10 10 11 12 12 7 8 8 8 4 3 1 2 3 3 3 4 3 4 1 5 3 1 1 2 2 5
31 31 29 30 32 32 31 29 31 26 20 15 15 11 10 10 11 14 14 14 13 9 8 7 7 5 3 4 3 3 3 2 4 6 7 7 7 7 6 6 6 6 5

GFSSE_850_spd_030.txt.gz
Wind_Speed
21 23 26 26 26 27 25 26 26 27 25 22 21 19 17 17 15 15 15 14 14 14 13 12 12 13 14 12 11 10 11 14 12 14 14 12 9 8 12 14 12 4 6
20 24 25 26 26 25 24 26 26 26 23 21 18 17 15 15 14 14 13 13 14 13 13 12 12 12 13 12 11 11 12 16 13 13 13 14 12 10 13 12 14 4 7
22 26 26 25 27 25 24 25 25 24 21 20 17 15 14 14 13 12 12 12 13 12 12 12 12 12 11 11 11 10 11 15 14 13 10 10 11 9 10 10 8 9 9
22 23 25 25 25 24 23 23 22 21 19 17 15 14 13 12 11 11 11 11 11 11 12 11 11 10 10 9 10 10 9 13 15 13 10 11 4 8 10 9 9 10 10
22 20 25 24 22 20 21 21 19 19 17 15 13 12 10 10 9 10 10 10 9 11 11 10 10 9 9 8 8 8 10 11 15 15 15 10 2 6 11 10 10 11 11
20 21 23 21 19 19 19 19 17 17 16 15 12 10 9 8 8 8 8 8 9 9 9 10 9 9 8 8 8 7 8 12 13 14 10 5 2 5 10 12 10 10 9
20 20 20 19 19 19 19 18 17 17 16 12 10 10 8 7 7 7 7 8 8 8 8 9 9 9 8 8 9 8 8 9 12 10 9 4 4 7 8 10 9 8 9
20 17 19 19 18 18 18 18 17 15 13 11 10 8 7 7 7 7 6 7 7 7 8 9 9 10 10 9 10 10 8 9 6 7 6 5 5 7 9 9 9 8 8
21 17 20 20 19 19 18 17 15 13 12 10 8 7 6 7 7 10 7 7 7 7 7 8 8 10 11 11 9 10 11 9 3 5 8 5 6 5 8 9 8 8 8
21 15 15 18 19 19 18 15 13 13 11 8 7 6 6 7 6 10 9 10 7 7 8 7 7 7 12 14 13 10 8 6 4 2 9 7 4 4 6 8 8 8 6
18 16 16 14 13 12 15 13 12 12 9 7 6 6 6 7 6 6 9 9 8 9 11 10 9 9 6 8 11 9 9 4 4 5 4 9 5 4 4 5 6 7 7
19 20 17 16 17 12 12 10 10 9 7 6 3 2 3 5 2 8 7 6 11 9 6 9 8 6 6 5 11 5 10 8 2 10 4 4 5 4 4 3 4 5 6
21 24 12 23 11 15 18 5 5 2 2 2 3 4 2 3 3 10 5 4 7 6 6 2 10 5 5 5 8 11 10 10 14 9 8 5 9 3 2 2 3 5 6
22 24 18 24 15 16 18 6 8 9 4 7 9 3 8 3 1 2 6 7 4 6 7 7 2 8 10 11 11 9 10 6 11 7 5 12 8 3 1 0 4 4 5
18 18 27 22 18 20 14 9 13 11 9 7 9 8 3 4 3 10 7 4 7 3 9 7 4 9 8 9 11 11 8 7 4 9 6 8 8 4 2 5 4 5 5
21 19 21 21 20 25 21 16 15 14 6 12 7 11 9 6 6 5 5 4 11 5 8 10 9 9 6 5 8 9 13 5 6 9 8 10 9 6 5 4 6 5 7
23 22 21 19 19 19 24 17 19 10 11 8 8 9 10 10 10 11 8 4 5 11 8 11 4 6 6 13 9 6 12 12 3 6 11 9 10 10 10 7 5 5 6
23 25 22 18 19 16 18 16 15 11 12 10 9 16 15 12 12 13 8 5 5 10 11 4 6 3 9 10 9 8 7 9 7 8 4 3 6 8 7 7 4 6 5
25 25 25 22 22 22 16 16 13 15 13 12 19 11 10 12 9 9 6 4 7 6 10 4 6 6 10 8 5 9 3 6 4 5 3 2 3 2 6 5 5 7 4
26 26 25 24 22 24 18 16 16 14 15 16 11 13 12 13 11 10 7 7 4 5 9 9 5 7 6 9 8 7 4 6 4 2 3 3 1 4 4 4 3 8 5
27 28 28 27 26 22 22 19 19 19 16 16 15 16 17 17 11 12 12 7 9 5 8 3 6 6 2 7 4 10 8 5 6 3 5 0 7 1 8 8 4 2 5
30 30 30 30 29 30 24 22 17 11 15 13 7 13 11 8 8 10 5 5 4 4 4 5 9 3 2 4 7 3 4 9 3 7 4 2 2 5 4 2 8 5 3
33 33 33 32 32 30 26 21 21 14 18 10 15 8 9 13 9 10 11 11 9 4 7 2 3 5 1 3 9 4 7 3 6 6 4 6 1 6 1 6 6 1 3
34 34 34 31 32 31 28 25 21 24 16 13 12 13 14 13 7 9 9 10 7 9 4 4 5 2 2 3 5 4 5 4 2 5 9 4 3 3 0 1 7 7 4
35 37 36 33 29 32 30 30 24 20 17 16 13 17 14 12 11 9 11 10 11 12 9 10 10 4 4 4 1 1 2 2 4 1 3 3 5 5 1 2 4 7 7
38 37 39 38 34 31 31 33 27 23 23 18 16 16 16 16 12 17 15 15 16 16 13 9 6 4 9 8 8 5 1 3 1 3 7 6 4 6 6 5 7 3 8

GFSSE_850_spd_033.txt.gz
Wind_Speed
22 27 25 27 27 26 27 29 30 26 25 23 22 20 19 18 17 17 16 16 15 14 13 12 12 12 11 11 12 13 11 12 14 15 13 9 8 13 15 14 13 11 12
26 27 27 28 26 26 27 28 27 25 23 21 20 18 17 16 16 16 15 15 14 14 13 12 11 11 11 11 12 12 13 14 12 14 15 13 12 14 12 14 12 12 12
27 27 26 26 25 25 26 27 25 23 21 19 18 17 16 15 15 14 14 14 13 13 12 11 10 10 10 10 11 11 11 12 11 8 11 12 11 12 13 12 11 13 13
29 27 26 26 24 25 25 26 24 21 18 17 16 15 14 14 13 13 13 12 12 11 11 9 8 9 9 9 10 11 11 9 12 10 6 6 8 10 12 13 13 14 15
28 26 27 25 24 24 24 23 21 19 17 16 14 12 13 12 11 12 11 11 10 10 10 10 8 8 8 9 10 12 13 10 9 11 8 3 4 7 11 11 14 15 15
26 27 26 25 23 22 22 21 19 18 16 14 12 11 11 10 10 10 10 9 9 10 10 9 8 8 9 10 10 12 11 12 12 10 5 5 4 6 10 13 12 13 14
25 26 24 22 21 21 21 19 18 17 15 12 12 11 9 9 9 9 9 9 10 10 9 9 11 12 13 13 12 13 10 8 11 8 4 5 2 4 9 10 11 11 12
26 25 22 21 21 21 20 19 18 17 14 12 11 9 9 9 10 9 9 11 10 10 11 12 14 15 16 15 13 10 8 8 7 5 7 5 3 4 7 8 10 10 11
24 23 22 22 21 20 20 19 18 16 13 12 10 8 9 9 11 12 12 13 11 11 11 12 13 14 13 13 12 11 5 9 11 10 2 3 3 3 6 8 9 9 9
16 22 23 22 21 20 19 18 17 14 13 10 9 8 9 10 7 10 13 12 13 12 12 10 9 10 11 12 12 9 3 2 6 13 12 2 1 4 7 8 9 8 9
18 21 22 22 21 21 19 17 15 14 11 9 9 9 9 6 7 8 7 9 8 7 12 11 9 8 8 6 7 6 4 4 7 6 6 4 3 2 5 8 8 8 9
18 20 20 21 21 20 17 13 12 10 8 8 8 6 6 4 2 5 3 4 6 10 6 6 10 6 8 11 8 7 10 6 10 4 3 6 5 1 2 5 7 8 8
18 18 15 18 19 16 15 9 8 7 8 6 5 4 2 6 2 2 4 6 5 4 8 7 9 6 8 9 8 9 9 5 7 8 4 8 5 1 0 2 4 7 8
26 23 19 17 17 18 15 7 11 8 8 1 1 4 1 2 4 1 6 5 3 7 7 11 2 5 6 8 8 6 9 6 5 5 4 4 2 1 1 0 2 4 7
27 26 25 22 19 18 15 10 7 6 5 3 3 1 2 4 4 5 3 2 2 5 5 5 4 5 5 4 3 4 8 7 8 11 5 6 4 1 2 1 1 4 5
24 29 29 26 23 20 19 15 13 11 11 4 6 4 4 6 7 3 4 3 2 3 6 5 6 2 2 4 6 3 6 5 3 4 4 5 3 5 3 2 3 4 5
24 28 30 31 27 24 24 23 21 17 11 14 9 8 7 9 9 11 7 3 2 4 9 8 2 1 1 5 5 4 4 4 0 6 8 7 4 6 5 5 2 3 5
25 24 31 31 25 20 29 25 22 20 16 12 11 10 11 12 12 8 8 5 4 5 8 8 4 3 5 7 10 3 5 4 3 4 3 3 5 3 2 3 3 3 3
26 29 28 26 22 19 18 29 23 20 18 11 14 11 14 13 9 7 4 2 3 6 7 9 3 6 9 6 1 4 5 1 2 5 1 4 3 1 3 3 2 3 3
30 32 31 25 22 22 17 13 17 19 17 16 15 13 15 14 12 7 3 7 4 5 7 9 7 5 6 3 8 3 3 1 3 5 3 5 3 1 3 3 5 4 5
32 32 34 31 27 23 23 20 17 18 18 18 19 16 11 12 13 11 9 10 7 8 7 5 5 9 3 2 6 1 4 2 12 3 7 4 5 3 5 8 5 5 3
35 35 34 33 31 28 25 24 17 16 17 10 18 19 21 12 10 8 4 10 9 7 8 7 4 3 2 3 10 1 1 7 10 7 7 3 4 4 3 5 8 6 6
39 38 36 35 32 32 27 23 19 16 15 17 18 16 15 13 12 9 11 10 10 9 8 7 6 2 4 3 7 4 3 3 7 9 4 3 1 6 8 8 7 3 1
42 39 37 36 34 34 33 29 26 26 19 20 9 15 13 14 13 7 12 13 11 14 11 9 6 1 10 7 3 2 4 3 4 6 7 2 1 4 2 2 5 6 5
44 44 41 38 35 32 36 33 27 28 25 24 15 15 12 19 15 9 13 15 17 14 13 10 8 6 11 11 7 8 4 3 4 4 8 5 5 7 5 2 6 8 7
46 46 45 41 38 33 29 34 32 29 25 27 21 20 20 21 18 14 17 18 15 19 17 13 11 9 9 14 11 9 9 2 2 3 2 3 5 6 12 8 5 6 8